Location: Zagreb
(45.8000°N, 16.0000°E)
Time: 05:55:02
(UTC+02:00)

Vanguard 1 - Pass Details

Date: 10 August 2022
Orbit: 649 x 3831 km, 34.3° (Epoch: 22 September)

Event Time Altitude Azimuth Distance (km) Brightness Sun altitude
Rises 07:48:35 0° 258° (WSW) 6,743 13.7 19.2°
Reaches altitude 10° 07:52:36 10° 255° (WSW) 6,045 13.6 19.9°
Maximum altitude 08:12:59 61° 182° (S) 4,147 13.6 23.5°
Drops below altitude 10° 08:34:43 10° 110° (ESE) 6,390 15.8 27.3°
Sets 08:39:07 0° 107° (ESE) 7,127 15.7 28.0°
